Location: The Rolnick Observatory
(41.1711°N, 73.3275°W)
Time: 13:38:17
(UTC-04:00)

N. Korean satellite - Pass Details

Date: 20 February 2019
Orbit: 456 x 510 km, 97.2° (Epoch: 23 March)

Event Time Altitude Azimuth Distance (km) Brightness Sun altitude
Rises 05:52:23 0° 16° (NNE) 2,505 10.3 -9.9°
Reaches altitude 10° 05:54:29 10° 21° (NNE) 1,617 9.4 -9.5°
Maximum altitude 05:57:53 55° 100° (E) 555 7.3 -8.9°
Drops below altitude 10° 06:01:14 10° 179° (S) 1,591 9.3 -8.3°
Sets 06:03:17 0° 184° (S) 2,457 10.2 -7.9°
